Weather in Bala-Chetyrman

Russia / Republic of Bashkortostan     53°05′23″N   55°25′55″E
temp.,
°C
wind,
m/s
gust,
m/s
humid.,
%
clouds,
%
prec.,
mm/h
press.,
hPa
HPBL,
m
23 october, sat
sat2323:00+9sw917694 0.0 1010578
02:00+8sw8167696 0.0 1010480
05:00+7sw71481100 0.0 1011415
08:00+6sw6129054 0.0 1012281
11:00+9sw71379100 0.0 1014513
14:00+13sw81464100 0.0 10141202
17:00+13wsw711576 0.0 1014846
20:00+10ssw6137475 0.0 1016309
24 october, sun
sun2423:00+10ssw61274100 0.0 1016344
02:00+10ssw5979100 0.0 1015257
05:00+9s51086100 0.4 1014310
08:00+8s61388100 2.4 1012564
11:00+9ssw91694100 6.1 1010859
14:00+9wsw71294100 2.7 1012719
17:00+8w4778100 3.4 1013506
20:00+7sw2281100 0.0 101422
25 october, mon
mon2523:00+6wsw2284100 0.0 101524
02:00+6n1182100 0.0 101511
05:00+4ne2284100 0.0 101430
08:00+4nne2384100 0.1 101495
11:00+4nnw3589100 2.4 1013259
14:00+5n4685100 3.6 1013548
17:00+5n3671100 3.9 1013615
20:00+4n498165 0.0 1015287
26 october, tue
tue2623:00+3n6127982 0.0 1015521
02:00+1n91282100 0.0 1017859
05:00−1n9157770 0.0 1020775
08:00−3nne815825 0.0 1022667
11:00−1nne812615 0.0 1024732
14:00+2nne794512 0.0 1024889
17:00+1nne57465 0.0 1024679
20:00−1n225897 0.0 102637
27 october, wed
wed2723:00−1nw115662 0.0 102711
02:00−1sw225262 0.0 102715
05:00−1sw345399 0.0 102673
08:00−2ssw48565 0.0 1026161
11:00+1ssw69465 0.0 1026426
14:00+4sw79435 0.0 1024745
17:00+4sw61050100 0.0 1023409
20:00+2ssw6115998 0.0 1023261